{"data":{"norad_id":40732,"intl_designator":"2015-034A","name":"METEOSAT-11 (MSG-4)","alt_names":[],"object_type":"PAYLOAD","status":"ACTIVE","operator":null,"country":"EUME","launch_date":"2015-07-15","launch_site_code":"FRGUI","launch_vehicle":null,"mission":null,"orbit_class":"UNKNOWN","rcs_meters":4.001,"size_class":null,"mass_kg":null,"dimensions":null,"purposes":["comms","earth_obs"],"wikipedia_slug":null,"has_3d_model":false,"image_url":null,"decayed_at":null,"tle_current":{"epoch":"2026-05-25T03:47:17.007072Z","epoch_age_seconds":68321,"freshness":"FRESH","line1":"1 40732U 15034A   26145.15783573  .00000060  00000+0  00000+0 0  9990","line2":"2 40732   3.1444  71.2320 0001678 359.8351 237.7587  1.00273096  6985","mean_motion":1.00273096,"eccentricity":0.0001678,"inclination_deg":3.1444,"raan_deg":71.232,"arg_perigee_deg":359.8351,"mean_anomaly_deg":237.7587,"bstar":0,"rev_number":698,"period_min":1436.0781280754,"perigee_km":35779.15226395,"apogee_km":35793.302624658,"semimajor_km":42164.364444304,"source":"CELESTRAK","updated_at":"2026-05-25T13:38:13.989403Z"}}}